Weather History for McGuire AFB, NJ

Change the Weather History Date:

Saturday, December 8, 2012

  Actual Average Record
Temperature  
Mean Temperature 48 °F -  
Max Temperature 52 °F 46 °F 60 °F (2004)
Min Temperature 44 °F 30 °F 18 °F (2008)
Degree Days  
Heating Degree Days 17    
Moisture  
Dew Point 48 °F    
Average Humidity 99    
Maximum Humidity 100    
Minimum Humidity 92    
Precipitation  
Precipitation 0.41 in - - ()
Sea Level Pressure  
Sea Level Pressure 29.94 in    
Wind  
Wind Speed 3 mph (WNW)    
Max Wind Speed 8 mph    
Max Gust Speed -    
Visibility 4 miles    
Events Fog , Rain    
Averages and records for this station are not official NWS values.
T = Trace of Precipitation, MM = Missing Value Source: NWS Daily Summary

Daily Weather History Graph

Daily Weather History Graph

Search for Another Location

Airport:

Trip Planner

Search our weather history database for the weather conditions in past years. The results will help you decide how hot, cold, wet, or windy it might be!

Date:

Astronomy

Dec. 08, 2012 Rise Set
Actual Time 7:08 AM EST 4:32 PM EST
Civil Twilight 6:37 AM EST 5:03 PM EST
Nautical Twilight 6:03 AM EST 5:37 PM EST
Astronomical Twilight 5:30 AM EST 6:10 PM EST
Moon 1:29 AM EST (12/8) 1:01 PM EST (12/8)
Length of Visible Light 10h 25m
Length of Day
9h 24m
Waning Crescent, 28% of the Moon is Illuminated
Dec 8
Waning Crescent
Dec 13
New
Dec 20
First Quarter
Dec 28
Full
Jan 4
Last Quarter

Hourly Weather History & Observations

Time (EST) Temp. Windchill Dew Point Humidity Pressure Visibility Wind Dir Wind Speed Gust Speed Precip Events Conditions
12:03 AM 44.6 °F - 44.6 °F 100% 30.00 in 4.0 mi Calm Calm - N/A Rain Light Rain
12:18 AM 44.6 °F - 44.6 °F 100% 29.99 in 5.0 mi Calm Calm - N/A Rain Light Rain
12:55 AM 45.5 °F 44.2 °F 45.1 °F 99% 29.99 in 4.0 mi North 3.5 mph - 0.13 in Rain Rain
12:59 AM 44.6 °F 43.1 °F 44.6 °F 100% 29.98 in 3.0 mi NNE 3.5 mph - N/A Rain Rain
1:00 AM 44.6 °F 43.1 °F 44.6 °F 100% 29.98 in 3.0 mi NNE 3.5 mph - N/A Rain Rain
1:10 AM 46.4 °F 44.3 °F 44.6 °F 93% 29.97 in 3.0 mi NE 4.6 mph - N/A Rain Rain
1:12 AM 46.4 °F 44.3 °F 44.6 °F 93% 29.97 in 3.0 mi NE 4.6 mph - N/A Rain Rain
1:24 AM 46.4 °F 45.2 °F 44.6 °F 93% 29.96 in 4.0 mi ENE 3.5 mph - N/A Rain Light Rain
1:37 AM 46.4 °F 44.3 °F 44.6 °F 93% 29.95 in 5.0 mi NNE 4.6 mph - N/A Rain Light Rain
1:41 AM 46.4 °F 44.3 °F 46.4 °F 100% 29.95 in 6.0 mi NNE 4.6 mph - N/A Rain Light Rain
1:55 AM 46.0 °F 44.8 °F 45.7 °F 99% 29.96 in 9.0 mi North 3.5 mph - 0.15 in Rain Light Rain
2:02 AM 46.4 °F 44.3 °F 46.4 °F 100% 29.95 in 8.0 mi NNE 4.6 mph - N/A Rain Light Rain
2:11 AM 46.4 °F 43.5 °F 46.4 °F 100% 29.94 in 5.0 mi NE 5.8 mph - N/A Rain Light Rain
2:12 AM 46.4 °F 43.5 °F 46.4 °F 100% 29.94 in 4.0 mi ENE 5.8 mph - N/A Rain Light Rain
2:21 AM 46.4 °F 43.5 °F 46.4 °F 100% 29.94 in 3.0 mi East 5.8 mph - N/A Rain Light Rain
2:24 AM 46.4 °F 45.2 °F 46.4 °F 100% 29.94 in 3.0 mi East 3.5 mph - N/A Rain Rain
2:42 AM 46.4 °F 42.9 °F 46.4 °F 100% 29.94 in 4.0 mi NNW 6.9 mph - N/A Rain Rain
2:51 AM 46.4 °F 44.3 °F 46.4 °F 100% 29.94 in 6.0 mi NNE 4.6 mph - N/A Rain Light Rain
2:52 AM 46.4 °F 44.3 °F 46.4 °F 100% 29.94 in 6.0 mi NNE 4.6 mph - N/A Rain Light Rain
2:55 AM 46.2 °F 44.1 °F 46.0 °F 99% 29.94 in 7.0 mi NNE 4.6 mph - 0.11 in Rain Light Rain
3:00 AM 46.4 °F 44.3 °F 46.4 °F 100% 29.93 in 6.0 mi NNE 4.6 mph - N/A   Overcast
3:04 AM 46.4 °F 44.3 °F 46.4 °F 100% 29.93 in 6.0 mi NNE 4.6 mph - N/A   Overcast
3:05 AM 46.4 °F 43.5 °F 46.4 °F 100% 29.93 in 6.0 mi NE 5.8 mph - N/A   Overcast
3:11 AM 46.4 °F 44.3 °F 46.4 °F 100% 29.93 in 8.0 mi NNE 4.6 mph - N/A   Overcast
3:39 AM 46.4 °F 44.3 °F 46.4 °F 100% 29.93 in 10.0 mi NNW 4.6 mph - N/A   Overcast
3:45 AM 46.4 °F 44.3 °F 46.4 °F 100% 29.92 in 10.0 mi North 4.6 mph - N/A   Overcast
3:55 AM 46.2 °F 45.0 °F 45.9 °F 99% 29.92 in 10.0 mi North 3.5 mph - 0.01 in   Overcast
4:17 AM 46.4 °F 44.3 °F 46.4 °F 100% 29.91 in 7.0 mi North 4.6 mph - N/A Rain Light Rain
4:21 AM 46.4 °F 45.2 °F 46.4 °F 100% 29.91 in 5.0 mi North 3.5 mph - N/A Rain Light Rain
4:26 AM 46.4 °F 45.2 °F 46.4 °F 100% 29.91 in 5.0 mi North 3.5 mph - N/A Rain Light Rain
4:37 AM 46.4 °F 44.3 °F 46.4 °F 100% 29.91 in 5.0 mi NNE 4.6 mph - N/A   Light Drizzle
4:40 AM 46.4 °F 45.2 °F 46.4 °F 100% 29.91 in 5.0 mi NNE 3.5 mph - N/A   Overcast
4:55 AM 46.2 °F 45.0 °F 46.0 °F 99% 29.90 in 5.0 mi NE 3.5 mph - 0.00 in   Overcast
5:08 AM 46.4 °F - 46.4 °F 100% 29.90 in 6.0 mi Calm Calm - N/A   Overcast
5:37 AM 46.4 °F - 46.4 °F 100% 29.91 in 9.0 mi Calm Calm - N/A   Overcast
5:53 AM 46.4 °F - 46.4 °F 100% 29.90 in 5.0 mi Calm Calm - N/A   Overcast
5:55 AM 46.4 °F - 46.2 °F 99% 29.90 in 4.0 mi Calm Calm - N/A   Overcast
5:58 AM 46.4 °F - 46.4 °F 100% 29.90 in 4.0 mi Calm Calm - N/A   Overcast
6:11 AM 46.4 °F - 46.4 °F 100% 29.90 in 2.5 mi Calm Calm - N/A   Overcast
6:13 AM 46.4 °F - 46.4 °F 100% 29.90 in 2.0 mi Calm Calm - N/A   Overcast
6:15 AM 46.4 °F - 46.4 °F 100% 29.90 in 1.8 mi Calm Calm - N/A   Overcast
6:18 AM 46.4 °F - 46.4 °F 100% 29.90 in 1.5 mi Calm Calm - N/A   Overcast
6:21 AM 46.4 °F - 46.4 °F 100% 29.90 in 1.2 mi Calm Calm - N/A   Overcast
6:26 AM 46.4 °F - 46.4 °F 100% 29.90 in 1.0 mi Calm Calm - N/A   Overcast
6:31 AM 46.4 °F - 46.4 °F 100% 29.90 in 0.8 mi Calm Calm - N/A   Overcast
6:35 AM 46.4 °F - 46.4 °F 100% 29.90 in 0.8 mi Calm Calm - N/A   Overcast
6:42 AM 46.4 °F - 46.4 °F 100% 29.90 in 0.5 mi Calm Calm - N/A Fog Fog
6:55 AM 46.6 °F - 46.2 °F 99% 29.90 in 0.5 mi Calm Calm - N/A Fog Fog
7:00 AM 46.4 °F - 46.4 °F 100% 29.91 in 0.8 mi Calm Calm - N/A   Mist
7:02 AM 46.4 °F - 46.4 °F 100% 29.91 in 0.5 mi Calm Calm - N/A Fog Fog
7:08 AM 46.4 °F - 46.4 °F 100% 29.90 in 0.2 mi Calm Calm - N/A Fog Fog
7:20 AM 46.4 °F - 46.4 °F 100% 29.90 in 0.2 mi Calm Calm - N/A Fog Fog
7:22 AM 46.4 °F 44.3 °F 46.4 °F 100% 29.91 in 0.2 mi WNW 4.6 mph - N/A Fog Fog
7:25 AM 46.4 °F - 46.4 °F 100% 29.90 in 0.5 mi Calm Calm - N/A Fog Fog
7:29 AM 46.4 °F - 46.4 °F 100% 29.90 in 0.5 mi Calm Calm - N/A Fog Fog
7:30 AM 46.4 °F - 46.4 °F 100% 29.90 in 0.5 mi Calm Calm - N/A Fog Fog
7:33 AM 46.4 °F - 46.4 °F 100% 29.90 in 0.8 mi Calm Calm - N/A   Overcast
7:39 AM 46.4 °F - 46.4 °F 100% 29.90 in 0.8 mi Calm Calm - N/A   Overcast
7:42 AM 46.4 °F 45.2 °F 46.4 °F 100% 29.89 in 1.0 mi East 3.5 mph - N/A   Overcast
7:47 AM 46.4 °F - 46.4 °F 100% 29.89 in 1.2 mi Calm Calm - N/A   Overcast
7:49 AM 46.4 °F - 46.4 °F 100% 29.90 in 1.0 mi Calm Calm - N/A   Overcast
7:53 AM 46.4 °F - 46.4 °F 100% 29.90 in 1.2 mi Calm Calm - N/A   Overcast
7:55 AM 46.9 °F - 46.6 °F 99% 29.90 in 1.2 mi Calm Calm - N/A   Overcast
7:56 AM 46.4 °F - 46.4 °F 100% 29.90 in 1.5 mi Calm Calm - N/A   Overcast
7:57 AM 46.4 °F - 46.4 °F 100% 29.90 in 1.8 mi Calm Calm - N/A   Overcast
7:59 AM 46.4 °F - 46.4 °F 100% 29.90 in 2.0 mi Calm Calm - N/A   Overcast
8:00 AM 46.4 °F - 46.4 °F 100% 29.91 in 3.0 mi Calm Calm - N/A   Overcast
8:55 AM 47.7 °F - 47.5 °F 99% 29.91 in 5.0 mi WSW 3.5 mph - N/A   Overcast
9:31 AM 48.2 °F - 48.2 °F 100% 29.92 in 6.0 mi WSW 3.5 mph - N/A   Overcast
9:55 AM 47.8 °F - 47.7 °F 99% 29.93 in 7.0 mi Calm Calm - N/A   Overcast
10:24 AM 48.2 °F - 48.2 °F 100% 29.92 in 5.0 mi Calm Calm - N/A   Overcast
10:40 AM 48.2 °F - 48.2 °F 100% 29.92 in 4.0 mi SW 3.5 mph - N/A   Overcast
10:43 AM 48.2 °F - 48.2 °F 100% 29.91 in 4.0 mi SSW 3.5 mph - N/A   Overcast
10:55 AM 48.7 °F - 48.6 °F 99% 29.91 in 4.0 mi WSW 4.6 mph - N/A   Overcast
11:02 AM 48.2 °F - 48.2 °F 100% 29.91 in 3.0 mi WSW 4.6 mph - N/A   Overcast
11:55 AM 49.6 °F - 49.3 °F 99% 29.90 in 5.0 mi SW 5.8 mph - N/A   Overcast
12:55 PM 50.2 °F - 49.6 °F 98% 29.89 in 10.0 mi WSW 5.8 mph - N/A   Overcast
1:09 PM 50.0 °F - 50.0 °F 100% 29.89 in 10.0 mi WSW 5.8 mph - N/A   Overcast
1:53 PM 51.8 °F - 50.0 °F 94% 29.89 in 10.0 mi WSW 6.9 mph - N/A   Overcast
1:55 PM 51.4 °F - 49.6 °F 94% 29.89 in 10.0 mi WSW 6.9 mph - N/A   Overcast
2:32 PM 51.8 °F - 50.0 °F 94% 29.88 in 10.0 mi SW 6.9 mph - N/A   Overcast
2:55 PM 52.0 °F - 49.6 °F 92% 29.89 in 10.0 mi SW 4.6 mph - N/A   Overcast
3:55 PM 51.8 °F - 49.8 °F 93% 29.90 in 10.0 mi Calm Calm - N/A   Overcast
4:55 PM 51.1 °F - 49.5 °F 94% 29.91 in 10.0 mi SW 8.1 mph - N/A   Overcast
5:13 PM 50.0 °F - 50.0 °F 100% 29.92 in 9.0 mi WSW 5.8 mph - N/A   Overcast
5:36 PM 50.0 °F - 50.0 °F 100% 29.92 in 8.0 mi WSW 5.8 mph - N/A   Overcast
5:55 PM 50.4 °F - 49.1 °F 95% 29.92 in 8.0 mi SW 6.9 mph - N/A   Overcast
6:09 PM 50.0 °F - 48.2 °F 94% 29.93 in 7.0 mi SW 3.5 mph - N/A   Overcast
6:14 PM 50.0 °F - 50.0 °F 100% 29.93 in 6.0 mi WSW 4.6 mph - N/A   Overcast
6:23 PM 50.0 °F - 50.0 °F 100% 29.93 in 6.0 mi WSW 8.1 mph - N/A   Overcast
6:25 PM 50.0 °F - 50.0 °F 100% 29.93 in 6.0 mi West 5.8 mph - N/A   Overcast
6:55 PM 50.0 °F - 49.5 °F 98% 29.94 in 6.0 mi West 6.9 mph - N/A   Overcast
7:06 PM 50.0 °F - 50.0 °F 100% 29.94 in 5.0 mi West 3.5 mph - N/A   Overcast
7:55 PM 50.0 °F - 49.8 °F 99% 29.96 in 4.0 mi West 5.8 mph - N/A   Overcast
8:19 PM 50.0 °F - 50.0 °F 100% 29.96 in 4.0 mi West 5.8 mph - N/A   Overcast
8:22 PM 50.0 °F - 50.0 °F 100% 29.96 in 4.0 mi West 6.9 mph - N/A   Overcast
8:32 PM 50.0 °F - 50.0 °F 100% 29.97 in 3.0 mi West 4.6 mph - N/A   Overcast
8:34 PM 50.0 °F - 50.0 °F 100% 29.97 in 3.0 mi West 4.6 mph - N/A   Overcast
8:42 PM 50.0 °F - 50.0 °F 100% 29.97 in 3.0 mi West 4.6 mph - N/A   Overcast
8:43 PM 50.0 °F - 50.0 °F 100% 29.97 in 2.5 mi West 4.6 mph - N/A   Overcast
8:49 PM 50.0 °F - 50.0 °F 100% 29.98 in 2.5 mi WNW 3.5 mph - N/A   Overcast
8:55 PM 49.8 °F - 49.6 °F 99% 29.98 in 2.5 mi West 4.6 mph - N/A   Overcast
9:00 PM 50.0 °F - 50.0 °F 100% 29.98 in 1.8 mi West 3.5 mph - N/A   Overcast
9:03 PM 50.0 °F - 50.0 °F 100% 29.98 in 1.8 mi West 4.6 mph - N/A   Overcast
9:04 PM 50.0 °F - 50.0 °F 100% 29.98 in 1.5 mi West 4.6 mph - N/A   Overcast
9:10 PM 50.0 °F - 50.0 °F 100% 29.98 in 1.2 mi WSW 3.5 mph - N/A   Overcast
9:16 PM 50.0 °F - 50.0 °F 100% 29.99 in 1.0 mi West 4.6 mph - N/A   Mist
9:20 PM 50.0 °F - 50.0 °F 100% 29.98 in 1.0 mi West 4.6 mph - N/A   Mist
9:29 PM 50.0 °F - 50.0 °F 100% 29.99 in 0.8 mi WNW 4.6 mph - N/A   Mist
9:35 PM 50.0 °F - 50.0 °F 100% 29.99 in 0.8 mi West 3.5 mph - N/A   Mist
9:50 PM 50.0 °F - 50.0 °F 100% 29.99 in 0.8 mi WNW 5.8 mph - N/A   Mist
9:52 PM 50.0 °F - 50.0 °F 100% 29.99 in 0.8 mi WNW 5.8 mph - N/A   Mist
9:55 PM 49.8 °F - 49.6 °F 99% 29.99 in 0.8 mi WNW 4.6 mph - N/A   Mist
10:05 PM 50.0 °F - 50.0 °F 100% 29.99 in 0.5 mi West 4.6 mph - N/A Fog Fog
10:13 PM 50.0 °F - 50.0 °F 100% 29.99 in 0.5 mi West 3.5 mph - N/A Fog Fog
10:15 PM 50.0 °F - 50.0 °F 100% 29.99 in 0.2 mi West 5.8 mph - N/A Fog Fog
10:55 PM 49.6 °F - 49.5 °F 99% 30.00 in 0.2 mi West 4.6 mph - N/A Fog Fog
10:56 PM 50.0 °F - 50.0 °F 100% 30.00 in 0.2 mi West 4.6 mph - N/A Fog , Rain Light Rain
11:20 PM 50.0 °F - 50.0 °F 100% 30.00 in 0.5 mi NW 3.5 mph - N/A Fog , Rain Light Rain
11:21 PM 50.0 °F - 50.0 °F 100% 30.00 in 0.5 mi NW 3.5 mph - N/A Fog , Rain Light Rain
11:27 PM 50.0 °F - 50.0 °F 100% 30.01 in 0.5 mi West 5.8 mph - N/A Fog , Rain Light Rain
11:28 PM 50.0 °F - 50.0 °F 100% 30.01 in 0.8 mi West 5.8 mph - N/A Rain Light Rain
11:29 PM 50.0 °F - 50.0 °F 100% 30.01 in 0.8 mi West 4.6 mph - N/A   Mist
11:31 PM 50.0 °F - 50.0 °F 100% 30.01 in 0.8 mi WNW 4.6 mph - N/A   Mist
11:32 PM 50.0 °F - 50.0 °F 100% 30.01 in 1.0 mi WNW 4.6 mph - N/A   Mist
11:35 PM 50.0 °F - 50.0 °F 100% 30.01 in 1.2 mi WNW 4.6 mph - N/A   Overcast
11:36 PM 50.0 °F - 50.0 °F 100% 30.01 in 1.5 mi WNW 4.6 mph - N/A   Overcast
11:38 PM 50.0 °F - 50.0 °F 100% 30.01 in 1.8 mi WNW 3.5 mph - N/A   Overcast
11:40 PM 50.0 °F - 50.0 °F 100% 30.01 in 2.0 mi West 3.5 mph - N/A   Overcast
11:44 PM 50.0 °F - 50.0 °F 100% 30.00 in 2.0 mi Calm Calm - N/A   Overcast
11:46 PM 50.0 °F - 50.0 °F 100% 30.01 in 1.8 mi Calm Calm - N/A   Overcast
11:53 PM 50.0 °F - 50.0 °F 100% 30.00 in 1.8 mi WSW 3.5 mph - N/A   Overcast
11:54 PM 50.0 °F - 50.0 °F 100% 30.01 in 2.0 mi West 3.5 mph - N/A   Overcast
11:55 PM 49.6 °F - 49.3 °F 99% 30.01 in 2.0 mi West 4.6 mph - 0.01 in   Overcast